This is the latest recevied weather packets stored in our database for station/object N4HAC. If no packets are shown the sender has not sent any weather packets the latest 10 day(s).
| Time | Temp. | Humidity | Pressure | Rain* | Wind** | Luminosity | Snow |
|---|---|---|---|---|---|---|---|
| 1777877676 | 5.56° C | 88% | 1010.1 hPa | 0 mm | - | 0 W/m² | - |
| 1777877373 | 5.56° C | 89% | 1010 hPa | 0 mm | - | 0 W/m² | - |
| 1777877071 | 5.56° C | 89% | 1010 hPa | 0 mm | - | 0 W/m² | - |
| 1777876767 | 5.56° C | 89% | 1010 hPa | 0 mm | - | 0 W/m² | - |
| 1777876465 | 5.56° C | 89% | 1010 hPa | 0 mm | - | 0 W/m² | - |
| 1777876161 | 5.56° C | 89% | 1009.9 hPa | 0 mm | - | 0 W/m² | - |
| 1777875858 | 5.56° C | 89% | 1010.2 hPa | 0 mm | - | 0 W/m² | - |
| 1777875554 | 5.56° C | 87% | 1010.1 hPa | 0 mm | - | 0 W/m² | - |
| 1777875250 | 5.56° C | 87% | 1010.1 hPa | 0 mm | - | 0 W/m² | - |
| 1777874949 | 5.56° C | 86% | 1010 hPa | 0 mm | - | 0 W/m² | - |
| 1777874649 | 5° C | 86% | 1010.1 hPa | 0 mm | - | 0 W/m² | - |
| 1777874346 | 5° C | 86% | 1010.2 hPa | 0 mm | - | 0 W/m² | - |
| 1777874044 | 5° C | 88% | 1010.1 hPa | 0 mm | - | 0 W/m² | - |
| 1777873741 | 5° C | 87% | 1010.3 hPa | 0 mm | - | 0 W/m² | - |
| 1777873438 | 5° C | 87% | 1010.1 hPa | 0 mm | - | 0 W/m² | - |
| 1777873135 | 5° C | 86% | 1010.1 hPa | 0 mm | - | 0 W/m² | - |
| 1777872831 | 5° C | 85% | 1009.9 hPa | 0 mm | - | 0 W/m² | - |
| 1777872529 | 5° C | 84% | 1010.2 hPa | 0 mm | - | 0 W/m² | - |
| 1777872227 | 5° C | 83% | 1010.1 hPa | 0 mm | - | 0 W/m² | - |
| 1777871924 | 5° C | 84% | 1010.3 hPa | 0 mm | - | 0 W/m² | - |
| 1777871620 | 4.44° C | 88% | 1010.2 hPa | 0 mm | - | 0 W/m² | - |
| 1777871317 | 5° C | 86% | 1010.4 hPa | 0 mm | - | 0 W/m² | - |
| 1777871015 | 5° C | 84% | 1010.4 hPa | 0 mm | - | 0 W/m² | - |
| 1777870712 | 5° C | 84% | 1010.3 hPa | 0 mm | - | 0 W/m² | - |
| 1777870412 | 5° C | 84% | 1010.5 hPa | 0 mm | - | 0 W/m² | - |
* Rain latest hour (hover to see other rain measurements)
** Current wind speed in m/s (hover to see current wind gust speed)